SCP
0 0 0 0 0 0 0 0 0 0 0 0 0 0 0 0 0 0 0 0 0 0 0 0 0 0 0 0 0 0 0 0 1 1 1 1 1 1 1 1 1 1 1 1
0 0 0 0 0 0 0 0 0 0 0 0 0 0 0 0 0 0 0 0 0 0 0 0 0 0 0 0 0 0 0 0 0 1 1 1 1 1 0 1 1 1 1 1
0 0 0 0 0 0 0 0 0 0 0 0 0 0 0 0 0 0 0 0 0 0 0 0 0 0 0 0 0 0 0 0 0 0 0 1 1 0 0 0 1 1 1 1
0 0 0 0 0 0 0 0 0 0 0 0 0 0 0 0 0 0 0 0 0 0 0 0 0 0 0 0 0 0 0 0 0 0 0 0 0 0 0 0 0 0 0 0
0 0 0 0 0 0 0 0 0 0 0 0 0 0 0 0 0 0 0 0 0 0 0 0 0 0 0 0 0 0 0 0 0 0 0 0 0 0 0 0 0 0 0 0
0 0 0 0 0 0 0 0 0 0 0 0 0 0 0 0 0 0 0 0 0 0 0 0 0 0 0 0 0 0 0 0 0 0 0 0 0 0 0 0 0 0 0 0
0 0 0 0 0 0 0 0 0 0 0 0 0 0 0 0 0 0 0 0 0 0 0 0 0 0 0 0 0 0 0 0 0 0 0 0 0 0 0 0 0 0 0 0
0 0 0 0 0 0 0 0 0 0 0 0 0 0 0 0 0 0 0 0 0 0 0 0 0 0 0 0 0 0 0 0 0 0 0 0 0 0 0 0 0 0 0 0
0 0 0 0 0 0 0 0 0 0 0 0 0 0 0 0 0 0 0 0 0 0 0 0 0 0 0 0 0 0 0 0 0 0 0 0 0 0 0 0 0 0 0 0
0 0 0 0 0 0 0 0 0 0 0 0 0 0 0 0 0 0 0 0 0 0 0 0 0 0 0 0 0 0 0 0 0 0 0 0 0 0 0 0 0 0 0 0
0 0 0 0 0 0 0 0 0 0 0 0 0 0 0 0 0 0 0 0 0 0 0 0 0 0 0 0 0 0 0 0 0 0 0 0 0 0 0 0 0 0 0 0
0 0 0 0 0 0 0 0 0 0 0 0 0 0 0 0 0 0 0 0 0 0 0 0 0 0 0 0 0 0 0 0 0 0 0 0 0 0 0 0 0 0 0 0
0 0 0 0 0 0 0 0 0 0 0 0 0 0 0 0 0 0 0 0 0 0 0 0 0 0 0 0 0 0 0 0 0 0 0 0 0 0 0 0 0 0 0 0
0 0 0 0 0 0 0 0 0 0 0 0 0 0 0 0 0 0 0 0 0 0 0 0 0 0 0 0 0 0 0 0 0 0 0 0 0 0 0 0 0 0 0 0
0 0 0 0 0 0 0 0 0 0 0 0 0 0 0 0 0 0 0 0 0 0 0 0 0 0 0 0 0 0 0 0 0 0 0 0 0 0 0 0 0 0 0 0
0 0 0 0 0 0 0 0 0 0 0 0 0 0 0 0 0 0 0 0 0 0 0 0 0 0 0 0 0 0 0 0 0 0 0 0 0 0 0 0 0 0 0 0
0 0 0 0 0 0 0 0 0 0 0 0 0 0 0 0 0 0 0 0 0 0 0 0 0 0 0 0 0 0 0 0 0 0 0 0 0 0 0 0 0 0 0 0
0 0 0 0 0 0 0 0 0 0 0 0 0 0 0 0 0 0 0 0 0 0 0 0 0 0 0 0 0 0 0 0 0 0 0 0 0 0 0 0 0 0 0 0
0 0 0 0 0 0 0 0 0 0 0 0 0 0 0 0 0 0 0 0 0 0 0 0 0 0 0 0 0 0 0 0 0 0 0 0 0 0 0 0 0 0 0 0
0 0 0 0 0 0 0 0 0 0 0 0 0 0 0 0 0 0 0 0 0 0 0 0 0 0 0 0 0 0 0 0 0 0 0 0 0 0 0 0 0 0 0 0
0 0 0 0 0 0 0 0 0 0 0 0 0 0 0 0 0 0 0 0 0 0 0 0 0 0 0 0 0 0 0 0 0 0 0 0 0 0 0 0 0 0 0 0
0 0 0 0 0 0 0 0 0 0 0 0 0 0 0 0 0 0 0 0 0 0 0 0 0 0 0 0 0 0 0 0 0 0 0 0 0 0 0 0 0 0 0 0
0 0 0 0 0 0 0 0 0 0 0 0 0 0 0 0 0 0 0 0 0 0 0 0 0 0 0 0 0 0 0 0 0 0 0 0 0 0 0 0 0 0 0 0
0 0 0 0 0 0 0 0 0 0 0 0 0 0 0 0 0 0 0 0 0 0 0 0 0 0 0 0 0 0 0 0 0 0 0 0 0 0 0 0 0 0 0 0
0 0 0 0 0 0 0 0 0 0 0 0 0 0 0 0 0 0 0 0 0 0 0 0 0 0 0 0 0 0 0 0 0 0 0 0 0 0 0 0 0 0 0 0
0 0 0 0 0 0 0 0 0 0 0 0 0 0 0 0 0 0 0 0 0 0 0 0 0 0 0 0 0 0 0 0 0 0 0 0 0 0 0 0 0 0 0 0
Wind_Speed
7 6 10 11 7 5 7 7 6 5 5 7 7 7 7 5 3 5 6 5 4 2 1 3 4 5 6 6 5 4 3 1 1 1 2 2 4 4 4 5 6 7 6 6
6 7 7 7 5 5 8 8 6 4 3 6 6 8 7 7 5 6 7 6 5 4 4 4 5 6 6 6 5 5 4 3 2 1 2 2 2 3 3 4 5 6 6 7
5 5 8 8 7 6 5 8 8 5 2 2 3 5 8 8 5 5 5 5 6 7 7 5 5 5 5 6 5 4 4 3 3 1 1 1 1 1 1 2 3 4 6 7
2 3 9 9 9 7 4 5 7 7 7 4 6 5 7 8 8 8 7 6 6 6 7 6 6 5 5 4 4 5 5 5 4 3 2 1 0 1 2 2 3 4 4 5
2 4 10 10 9 7 4 2 6 7 6 2 2 3 8 4 10 12 9 7 7 7 8 7 6 6 5 4 5 5 6 6 6 5 4 3 1 1 2 2 3 4 4 4
2 1 2 4 3 6 5 8 8 6 4 4 6 5 9 6 10 8 8 8 8 8 7 6 5 5 5 5 5 6 6 7 7 7 6 5 4 3 3 4 3 3 3 3
3 2 2 1 5 3 5 8 4 2 1 6 4 5 11 8 8 10 11 10 9 8 7 7 6 5 5 5 5 6 6 6 7 7 6 6 5 4 3 3 3 3 3 3
6 5 0 2 4 6 5 9 8 7 7 4 3 9 9 6 6 7 10 10 8 7 7 7 6 6 5 5 5 5 6 5 6 6 5 5 5 3 2 3 3 3 2 3
6 5 2 2 1 4 6 4 5 6 3 2 6 7 7 2 3 7 9 9 8 8 7 7 6 5 5 5 5 5 5 5 5 5 5 5 5 5 4 4 3 3 3 3
5 6 3 1 2 3 3 6 5 5 6 5 6 6 6 6 7 8 10 9 8 7 7 6 6 5 5 5 4 4 4 4 4 5 4 4 5 5 5 4 5 5 5 5
3 6 5 3 5 6 4 4 4 5 4 5 5 8 6 11 12 12 11 9 9 8 7 6 6 5 5 4 4 4 4 4 4 4 4 4 5 5 5 5 5 5 5 5
4 4 4 2 1 0 2 4 6 6 5 4 3 9 5 7 9 9 8 7 8 8 7 7 6 5 4 4 3 3 3 3 3 3 4 4 5 5 5 6 6 6 6 6
6 6 6 2 2 3 4 4 5 4 4 4 4 9 5 2 7 8 8 8 7 8 7 6 5 5 4 4 3 3 3 3 3 3 4 5 5 5 5 6 6 6 6 7
6 4 5 9 6 7 6 7 7 6 5 5 7 6 3 3 6 7 8 8 8 8 8 7 5 5 4 4 3 2 2 3 3 3 4 4 5 5 5 5 6 6 6 7
5 4 2 1 2 5 6 8 11 11 9 8 7 7 8 9 9 9 8 8 8 7 7 7 7 5 4 3 3 2 2 2 3 3 4 4 4 5 5 6 6 6 7 8
4 4 2 1 1 2 4 7 11 13 11 9 6 7 7 6 5 6 8 9 9 9 8 8 7 6 5 4 3 3 2 2 3 3 4 4 4 5 5 5 6 7 7 7
3 4 3 1 0 2 7 12 14 10 9 11 13 10 3 5 9 10 10 10 10 9 8 9 8 7 6 5 4 3 3 3 3 3 4 4 4 5 5 6 6 7 6 7
6 5 3 2 1 7 9 4 8 10 10 9 8 7 8 8 7 7 7 10 9 9 9 9 8 7 6 5 4 4 4 4 4 3 4 4 4 5 5 5 6 6 5 6
5 6 3 3 3 8 8 4 6 7 8 11 12 8 7 5 3 2 4 7 8 8 8 8 7 7 6 6 5 5 4 4 4 4 3 3 4 4 5 5 5 4 4 5
3 4 3 3 3 6 5 2 3 4 6 6 11 10 8 9 6 6 5 5 6 7 8 8 7 6 7 6 6 6 5 4 4 4 3 3 4 4 4 4 4 3 4 4
3 2 4 3 4 8 6 1 4 3 7 4 5 9 9 9 6 4 7 6 6 7 8 9 8 7 7 7 7 7 6 5 4 4 4 4 4 4 4 3 3 3 3 3
7 5 5 5 6 9 3 4 5 6 3 2 1 5 7 5 5 6 7 7 8 8 8 9 8 7 6 7 8 7 6 5 5 5 4 4 4 3 3 3 3 2 3 2
6 8 6 7 9 6 4 6 5 3 1 0 2 3 6 5 5 5 5 7 8 8 9 8 8 8 7 7 8 8 7 6 6 5 5 4 4 3 4 4 3 2 2 2
4 2 3 4 6 6 5 4 2 3 3 1 2 3 4 5 5 5 5 6 7 8 9 8 9 9 9 8 8 7 7 8 7 6 6 5 4 4 3 3 3 3 3 3
4 2 3 5 5 4 3 4 3 2 2 3 2 2 3 4 4 5 5 7 8 8 8 9 10 10 10 9 9 8 8 9 8 7 6 5 5 4 4 3 3 3 3 4
4 5 4 6 4 4 6 5 3 4 4 4 4 2 1 2 3 4 5 6 7 8 8 9 10 10 10 10 10 9 9 10 9 7 6 5 4 4 4 3 1 3 4 4
Wind_Direction
164 165 190 190 176 135 132 138 165 188 182 172 203 221 239 258 249 224 214 207 204 191 78 66 70 79 85 72 76 73 80 60 118 154 190 214 231 235 235 232 231 226 222 215
148 197 182 144 159 133 142 146 170 209 212 184 211 232 241 246 232 220 211 205 188 150 112 79 69 63 68 70 65 65 57 48 56 152 190 203 221 238 241 246 242 236 231 225
161 172 159 157 175 165 169 171 175 173 136 142 156 257 247 252 238 232 218 199 178 163 146 125 99 84 75 63 53 49 40 40 36 28 84 49 34 335 306 268 261 255 245 237
137 161 163 171 186 164 196 206 181 159 141 198 172 235 261 231 236 227 213 188 170 155 143 138 126 106 89 70 52 42 32 32 26 32 56 83 148 249 264 275 277 286 274 261
165 170 169 181 189 160 190 170 153 156 142 137 170 199 274 235 229 225 208 192 174 161 151 146 138 122 97 71 55 41 38 34 25 31 38 48 25 285 294 307 308 305 299 284
91 53 146 172 171 164 138 87 68 64 91 206 205 186 266 230 218 210 192 181 170 163 149 137 128 114 89 63 51 42 43 34 23 26 27 30 14 349 342 336 328 319 311 308
83 48 23 113 131 143 136 117 98 104 202 240 203 202 247 246 227 195 178 173 171 161 147 141 135 121 100 75 57 48 49 35 21 22 19 15 9 4 353 330 322 324 325 321
147 161 85 38 148 165 173 142 154 172 198 253 215 228 251 276 252 178 158 159 159 157 155 151 144 132 114 93 72 60 53 37 21 15 5 5 3 356 341 333 326 324 311 302
153 149 93 49 56 133 141 150 153 130 150 200 247 266 299 343 117 142 149 154 161 163 161 152 141 130 118 100 82 73 63 43 21 8 2 9 3 1 354 349 349 339 333 330
131 131 140 98 85 26 143 143 116 126 158 223 257 245 236 212 192 173 168 167 167 162 155 147 137 126 114 105 91 74 66 48 18 8 8 15 3 3 1 7 6 360 355 357
119 127 139 149 188 180 154 153 147 148 176 185 236 258 223 204 192 181 178 172 167 165 160 151 138 127 117 103 88 73 56 37 16 11 18 21 12 7 9 15 11 8 10 15
143 118 134 145 360 259 199 183 158 165 211 196 210 268 288 223 186 170 170 171 168 161 155 148 140 132 121 107 90 72 51 31 13 23 36 30 20 18 22 21 18 24 30 29
140 124 128 137 265 223 220 212 190 153 147 177 191 265 326 110 149 162 164 166 161 153 148 144 144 142 135 122 103 79 52 29 26 42 45 38 29 27 28 27 28 34 40 40
121 132 172 188 200 176 193 203 187 161 189 209 218 250 280 180 166 171 172 170 165 163 160 157 155 152 145 133 118 97 60 41 55 56 53 47 37 33 36 38 39 40 45 48
108 137 179 234 170 161 192 197 195 200 201 198 220 221 229 208 189 182 176 168 165 170 172 171 166 163 155 143 132 115 84 68 71 70 63 54 48 45 46 48 48 49 52 54
91 120 103 334 222 186 233 221 210 215 214 220 234 247 241 207 180 176 177 175 181 187 183 174 167 164 163 157 147 131 108 90 82 78 70 63 60 57 54 54 55 57 57 55
114 120 120 260 332 27 261 223 210 210 208 200 221 228 214 177 185 187 187 188 192 190 180 174 170 167 164 162 153 141 124 105 90 82 75 72 70 66 61 64 61 57 57 58
131 119 127 150 104 241 244 228 202 215 227 208 215 205 198 200 195 190 185 189 194 182 173 169 163 159 158 156 146 132 122 115 107 95 83 81 82 80 76 73 69 64 62 63
143 139 144 161 231 274 284 245 180 193 247 217 213 207 202 184 128 235 213 191 186 175 163 160 159 155 155 156 148 134 129 128 120 108 97 91 94 94 91 85 79 74 77 71
129 131 147 189 232 253 267 284 168 136 268 240 206 197 176 151 174 227 196 164 151 144 145 149 148 145 156 160 148 142 146 144 139 130 119 112 110 111 108 103 96 89 92 89
159 174 188 203 247 267 261 236 114 173 255 293 201 185 170 178 191 182 149 146 147 145 148 150 153 160 168 160 152 154 159 162 153 139 132 129 129 131 129 120 115 117 110 103
174 187 195 185 218 255 249 149 187 225 277 343 136 156 155 155 135 137 149 153 155 154 155 158 162 170 170 164 161 165 175 167 152 148 149 153 156 157 148 141 138 135 133 126
195 192 189 198 219 242 219 209 230 203 193 22 103 124 130 132 150 159 167 169 171 170 170 168 169 171 177 178 175 178 181 167 160 160 168 172 174 173 165 166 170 169 171 175
262 198 196 248 262 261 252 242 240 201 186 161 130 130 135 149 168 177 180 183 184 182 180 175 173 182 190 191 189 186 172 168 167 174 178 177 172 170 170 175 174 173 181 189
258 217 225 254 274 300 280 239 228 216 161 136 119 128 148 158 177 188 194 196 195 192 187 184 189 195 197 191 194 187 175 171 175 179 181 180 177 168 168 171 184 182 200 196
225 208 210 238 240 230 255 252 221 197 195 177 160 149 130 163 197 200 208 205 199 196 190 193 199 201 198 194 197 190 181 177 177 181 184 182 175 173 170 165 173 216 207 211